Torna al catalogo

STARLINK-30512

AttivoComunicazioniVLEO
NORAD 57976·PAYLOAD·🇺🇸 United States

Lanciato Sep 30, 2023 da Cape Canaveral Space Force Station

Loading…

Prossimi Passaggi (prossime 24 ore)

TLE

AggiornatoSource: CelesTrak SupGP

Epoca: Sep 15, 2026, 03:25 UTC

1 57976C 23151N   26258.14284722  .00049089  00000+0  17776-2 0  2586
2 57976  43.0029 345.8940 0001497 264.1635  43.2651 15.27560828    11

Traccia STARLINK-30512 in tempo reale con AllMySat

Download on the App Store